GW1095 Weather Reports


time (UTC)temp
C
wind
direction
speed
KPH
gust
KPH
rain 1hr
cm
rain 24hr
cm
rain mn
cm
humidity
%
barometer
mb
20260506211537 8 9 6.4 20.9 0.56 2.74 2.64 91 1006.5
20260506210037 8 5 6.4 17.7 0.56 2.74 2.64 91 1006.3
20260506204537 9 360 8.0 19.3 0.56 2.77 2.64 90 1006.0
20260506203036 10 350 9.7 27.4 0.51 2.72 2.59 90 1005.7
20260506201540 12 298 9.7 24.1 0.00 2.21 2.08 91 1005.9
20260506200039 14 16 12.9 25.7 0.00 2.21 2.08 91 1005.3
20260506194538 16 182 3.2 9.7 0.05 2.21 2.08 94 1005.2
20260506193038 16 200 6.4 17.7 0.08 2.21 2.08 94 1005.3
20260506191540 16 205 8.0 22.5 0.18 2.21 2.08 94 1005.3
20260506190037 16 191 12.9 19.3 0.25 2.21 2.08 94 1005.3
20260506184547 16 178 12.9 25.7 0.25 2.16 2.03 95 1005.4
20260506183049 15 201 11.3 27.4 0.25 2.13 2.01 94 1005.5
20260506181605 15 191 11.3 24.1 0.33 2.03 1.91 94 1005.6
20260506180037 15 233 9.7 24.1 0.38 1.93 1.80 95 1005.6
20260506174540 15 178 9.7 24.1 0.46 1.91 1.78 95 1005.5
20260506173053 14 188 16.1 29.0 0.51 1.88 1.75 95 1005.6
20260506171535 13 188 6.4 14.5 0.41 1.70 1.57 94 1005.8
20260506170040 13 145 1.6 9.7 0.36 1.55 1.42 94 1006.1
20260506164539 13 0 1.6 6.4 0.36 1.45 1.32 94 1006.3
20260506163039 13 74 0.0 4.8 0.38 1.37 1.24 93 1006.4
20260506161537 12 74 1.6 4.8 0.38 1.30 1.17 93 1006.4
20260506160036 12 74 3.2 6.4 0.33 1.19 1.07 93 1006.8
20260506154538 12 74 1.6 4.8 0.30 1.07 0.94 93 1006.9
20260506153041 12 74 1.6 6.4 0.33 0.99 0.86 92 1007.2
20260506151543 12 74 1.6 4.8 0.33 0.91 0.79 92 1007.1
20260506150044 12 74 0.0 4.8 0.33 0.86 0.74 92 1007.2
20260506144537 12 0 0.0 0.0 0.28 0.76 0.64 92 1007.7
20260506143036 12 0 0.0 0.0 0.23 0.66 0.53 92 1008.0
20260506141535 12 0 0.0 0.0 0.23 0.58 0.46 91 1007.9
20260506140034 12 0 0.0 0.0 0.25 0.53 0.41 91 1008.4
20260506134533 12 0 0.0 8.0 0.25 0.48 0.36 91 1007.9
20260506133038 12 74 1.6 6.4 0.25 0.43 0.30 91 1007.7
20260506131540 12 108 1.6 6.4 0.20 0.36 0.23 91 1007.7
20260506130037 12 167 1.6 4.8 0.13 0.28 0.15 90 1008.2
20260506124536 12 120 1.6 4.8 0.08 0.23 0.10 90 1007.9
20260506123038 12 0 0.0 3.2 0.05 0.18 0.05 89 1008.3
20260506121539 12 233 0.0 3.2 0.03 0.15 0.03 89 1008.7
20260506120040 12 233 0.0 4.8 0.03 0.15 0.03 89 1008.6
20260506114537 12 0 0.0 4.8 0.03 0.15 0.03 88 1008.3
20260506113041 11 194 3.2 4.8 0.00 0.13 0.00 88 1008.3
20260506111535 11 14 0.0 4.8 0.00 0.13 0.00 88 1007.8
20260506110038 11 0 0.0 6.4 0.00 0.13 0.00 88 1008.0
20260506104537 11 0 1.6 6.4 0.00 0.28 0.00 87 1008.0
20260506103041 11 0 0.0 0.0 0.00 0.28 0.00 87 1007.8
20260506101536 11 0 0.0 0.0 0.00 0.28 0.00 86 1007.7
20260506100038 11 0 0.0 0.0 0.00 0.28 0.00 86 1007.7
20260506094539 11 0 0.0 0.0 0.00 0.28 0.00 85 1007.6
20260506093038 11 0 0.0 0.0 0.00 0.28 0.00 85 1007.7
20260506091543 11 0 0.0 0.0 0.00 0.28 0.00 84 1007.6
20260506090037 12 0 0.0 0.0 0.00 0.28 0.00 83 1007.7
20260506084544 12 0 0.0 0.0 0.00 0.28 0.00 83 1007.9
20260506083037 12 0 0.0 0.0 0.00 0.28 0.00 83 1008.0
20260506081537 12 0 0.0 0.0 0.00 0.28 0.00 83 1008.2
20260506073037 12 257 1.6 9.7 0.00 0.28 0.00 83 1008.7
20260506071537 13 269 1.6 11.3 0.00 0.28 0.00 83 1008.5
20260506061537 13 229 4.8 11.3 0.00 0.28 0.00 83 1008.9
20260506044539 15 214 0.0 4.8 0.00 0.28 0.00 81 1009.2
20260506043037 15 0 4.8 16.1 0.00 0.28 0.00 82 1009.1
20260506041537 15 267 3.2 12.9 0.00 0.28 0.00 82 1008.9
20260506040036 16 308 6.4 17.7 0.00 0.28 0.00 83 1008.9
20260506034537 16 315 9.7 20.9 0.00 0.28 0.28 83 1008.8
20260506033038 16 339 4.8 17.7 0.00 0.28 0.28 84 1008.8
20260506031537 16 290 3.2 12.9 0.00 0.28 0.28 84 1008.7
20260506030041 16 232 4.8 16.1 0.00 0.28 0.28 83 1008.5
20260506024556 16 236 8.0 22.5 0.03 0.28 0.28 82 1008.3
20260506023035 16 0 1.6 6.4 0.10 0.28 0.28 81 1008.1
20260506021538 16 190 3.2 6.4 0.10 0.28 0.28 81 1008.4
20260506020037 17 188 3.2 9.7 0.10 0.28 0.28 80 1008.2
20260506014537 17 175 1.6 4.8 0.05 0.23 0.23 79 1008.1
20260506013053 17 0 0.0 4.8 0.00 0.18 0.18 76 1007.8
20260506011539 17 207 1.6 4.8 0.00 0.18 0.18 75 1007.6
20260506010040 17 207 1.6 8.0 0.00 0.18 0.18 75 1007.4
20260506004538 17 0 1.6 8.0 0.00 0.18 0.18 73 1007.3
20260506003039 17 197 1.6 4.8 0.00 0.18 0.18 72 1007.0
20260506001541 18 223 3.2 6.4 0.00 0.18 0.18 71 1006.8
20260506000037 18 0 0.0 8.0 0.00 0.18 0.18 70 1006.7
20260505234538 18 0 0.0 4.8 0.00 0.18 0.18 69 1006.4
20260505233036 18 0 0.0 4.8 0.00 0.18 0.18 69 1006.2
20260505231541 18 0 3.2 8.0 0.00 0.18 0.18 69 1006.3
20260505230051 19 178 1.6 8.0 0.00 0.18 0.18 67 1006.2
20260505224537 19 208 3.2 14.5 0.00 0.18 0.18 66 1006.0
20260505223049 19 264 6.4 16.1 0.00 0.18 0.18 65 1006.0
20260505221537 20 255 20.9 48.3 0.00 0.18 0.18 64 1006.4
20260505220042 20 255 24.1 43.5 0.00 0.18 0.18 62 1005.9
20260505214532 20 255 12.9 32.2 0.00 0.18 0.18 59 1006.5
20260505213051 21 288 6.4 24.1 0.00 0.18 0.18 57 1005.8